Wind_Speed
12 12 12 12 12 11 11 11 11 11 10 10 10 10 9 9 9 9 10 10 10 10 11 11 12 12 11 11 12 12 12 12 12 12 12 12 12 12 12 12 13 13 14
13 13 13 13 13 13 13 13 13 13 12 11 11 11 11 10 10 10 10 10 10 11 11 11 12 12 12 12 12 13 13 13 13 13 14 14 13 13 13 13 13 14 14
14 14 14 14 14 14 14 14 14 14 14 13 12 12 12 12 11 11 11 11 11 11 12 12 12 12 12 12 13 13 14 14 14 14 14 14 14 14 14 14 14 14 14
15 15 15 15 15 15 15 14 15 15 14 13 13 13 13 13 13 12 12 12 12 13 13 13 13 13 14 14 14 15 15 15 15 15 15 14 14 14 14 15 15 15 14
14 14 15 15 15 15 15 15 15 15 15 15 14 14 14 14 14 14 13 14 14 14 14 14 14 14 15 15 15 15 15 15 15 15 15 15 15 15 15 15 15 15 15
12 13 14 15 15 15 16 16 16 15 16 16 15 15 15 15 15 16 16 16 15 15 15 16 16 16 16 16 17 16 16 16 16 17 17 16 16 16 16 15 15 15 16
12 13 13 14 14 15 15 16 16 16 17 17 17 17 17 17 16 17 18 17 17 17 17 17 17 17 17 18 18 18 18 18 18 18 18 18 18 17 17 17 17 16 16
13 14 14 15 15 16 16 17 17 17 17 18 18 18 18 18 18 18 18 18 18 18 18 19 19 19 19 19 20 21 21 21 21 21 21 20 19 19 18 18 18 17 17
14 15 16 16 17 17 17 18 18 19 19 19 20 20 20 19 20 20 19 19 20 20 20 19 20 20 20 21 21 22 23 23 23 22 22 22 22 21 20 20 20 19 19
16 17 17 18 19 19 19 20 20 20 20 20 21 22 22 21 22 22 21 21 21 21 21 21 21 22 22 23 23 24 24 24 24 25 24 24 24 23 23 22 22 22 21
17 17 18 19 20 20 21 22 22 22 22 22 23 23 24 23 23 23 23 23 23 23 23 24 24 24 24 25 25 25 25 25 26 26 26 26 26 26 25 25 24 24 23
19 19 20 21 21 22 23 23 23 24 24 24 25 25 26 26 26 26 26 25 25 26 26 26 26 26 27 27 27 27 27 27 27 27 27 27 27 27 27 27 27 26 26
21 21 22 22 23 24 24 25 25 25 26 26 26 27 27 28 28 28 28 28 28 28 29 28 28 29 28 28 28 28 29 29 28 28 29 29 28 28 29 29 28 28 28
23 23 24 24 25 25 26 26 26 27 27 28 28 28 29 29 30 30 30 31 31 31 31 31 31 30 30 30 30 29 29 30 30 30 30 30 30 30 30 30 30 30 30
24 25 25 26 26 27 27 28 28 28 29 29 30 30 30 31 31 32 32 32 33 33 33 33 33 32 31 31 31 30 30 31 31 31 31 31 31 30 30 30 30 30 30
25 26 26 27 27 28 28 28 29 29 30 30 31 31 31 32 32 33 33 33 34 34 34 34 34 33 33 33 33 32 32 32 31 31 31 30 31 30 30 30 30 31 30
26 27 27 28 28 28 28 28 29 29 30 31 32 32 32 33 33 34 34 34 34 35 35 34 34 34 34 35 35 34 33 32 31 31 31 30 30 30 30 30 31 30 30
28 27 27 28 28 29 30 30 30 30 31 32 32 33 33 34 35 35 35 36 35 36 36 35 36 36 35 36 36 35 34 33 31 31 31 31 31 31 31 30 31 31 30
28 28 28 28 29 30 31 31 31 32 33 33 33 33 34 35 35 36 36 37 36 36 36 36 36 37 36 35 35 34 34 34 33 33 33 33 33 32 32 32 32 32 31
29 29 29 30 30 31 31 32 33 33 34 34 34 34 35 35 36 37 37 37 37 37 37 37 37 37 36 35 35 34 34 34 33 34 34 34 33 33 33 33 32 32 32
29 30 30 31 31 31 32 32 33 33 33 34 35 35 35 36 36 37 37 38 38 38 38 37 37 37 36 35 35 35 35 35 34 34 35 34 35 34 34 34 34 33 33
30 31 31 32 32 32 32 32 33 33 33 34 35 35 35 36 37 38 38 38 38 38 38 38 38 37 35 35 35 36 36 36 36 36 36 36 36 35 35 36 35 34 34
33 33 33 33 33 33 33 33 33 33 33 34 35 34 35 35 36 36 37 38 38 38 38 38 38 37 36 36 35 35 36 36 36 36 37 36 36 36 36 35 35 35 35
34 34 35 34 34 34 34 33 33 33 33 33 33 34 34 35 35 36 36 36 36 36 37 38 37 36 35 35 35 35 35 36 37 37 37 36 36 36 36 36 35 35 35
35 35 35 35 35 35 35 34 34 34 34 34 34 34 34 34 35 35 35 35 35 36 36 36 35 35 34 34 35 35 35 36 36 36 36 36 36 36 36 35 34 34 34
35 35 35 35 35 35 35 35 35 35 35 35 35 35 34 35 36 36 35 34 34 33 33 33 34 34 33 33 34 35 36 36 36 35 36 36 36 35 34 33 33 34 34
Wind_Direction
263 264 263 264 265 266 268 269 269 269 271 271 271 272 276 278 278 274 271 272 275 276 277 277 278 279 279 279 280 281 282 283 280 280 281 282 285 288 288 285 285 285 285
265 266 264 264 265 267 268 270 270 270 270 269 268 268 272 277 278 275 273 274 275 275 277 277 277 279 280 280 281 281 282 284 284 283 281 279 282 283 286 286 285 286 287
265 265 266 266 265 265 266 268 268 269 267 265 264 266 271 275 276 277 277 276 276 278 280 278 278 278 280 280 281 282 282 283 284 284 284 283 281 281 282 283 285 287 288
265 264 265 266 264 265 266 266 267 267 266 265 264 266 271 273 275 277 277 277 278 279 280 281 280 279 280 281 283 283 283 283 282 283 283 282 283 283 281 282 284 284 285
266 266 265 267 266 266 266 266 267 266 266 267 268 268 270 271 273 273 276 278 278 279 280 280 280 280 281 283 286 286 285 283 281 280 281 280 281 283 284 284 285 284 283
268 269 268 268 268 267 266 266 266 266 266 268 269 269 269 271 272 273 275 277 278 278 278 279 279 279 280 282 283 285 285 283 282 280 281 278 279 280 282 282 283 284 284
271 272 272 272 270 269 269 268 267 266 267 267 268 269 268 271 272 274 276 277 277 277 278 279 279 279 280 280 279 280 282 281 279 278 278 279 278 277 279 280 280 281 282
274 275 275 274 274 272 271 270 269 268 268 267 268 269 270 272 272 274 276 277 277 277 278 278 278 278 279 279 279 279 278 279 278 276 276 277 278 276 276 277 278 278 279
273 274 275 276 276 275 274 273 271 269 268 266 266 267 268 270 271 273 275 278 277 277 277 278 278 279 280 281 281 280 279 277 276 275 275 274 275 275 274 274 275 275 276
272 274 278 279 277 275 276 276 273 271 269 267 267 267 267 269 271 272 274 276 277 276 277 278 279 279 281 283 283 282 279 277 276 276 275 274 272 273 272 272 273 274 274
275 277 279 280 279 277 277 276 274 272 271 269 268 267 268 269 271 273 274 274 275 276 277 279 280 281 281 282 282 281 279 278 277 276 275 274 273 272 271 270 270 271 272
276 279 280 280 280 278 278 277 275 274 273 271 270 269 268 270 271 272 272 273 274 276 277 279 281 282 282 283 283 282 280 278 277 277 276 275 274 273 272 270 269 270 270
278 280 280 281 281 280 280 278 276 275 274 272 271 270 270 271 270 270 270 272 274 276 277 279 281 282 282 282 282 281 280 279 277 276 276 275 274 274 272 271 270 269 269
279 280 280 281 281 281 280 279 277 275 274 273 271 270 271 272 272 271 271 272 273 275 277 278 280 280 280 280 280 279 279 279 277 276 275 274 274 274 273 271 270 269 269
280 282 282 282 283 282 281 281 279 277 274 274 274 273 272 273 273 273 273 273 274 275 276 277 278 279 279 280 280 278 277 277 277 275 274 274 273 272 271 270 270 269 268
282 283 283 283 283 282 282 282 280 278 276 275 275 275 274 274 274 275 275 275 277 277 278 278 278 278 278 279 279 277 277 277 276 275 274 273 271 269 269 268 269 268 268
282 283 283 283 284 284 283 283 281 279 278 278 277 275 275 275 276 275 276 277 277 278 278 279 278 278 278 279 278 277 276 275 275 274 273 272 271 269 268 266 267 268 268
282 283 283 283 283 283 283 283 281 280 279 279 278 276 276 276 277 276 277 277 278 279 279 278 278 278 277 278 277 276 275 274 273 273 273 272 270 268 266 265 266 266 266
283 284 284 284 284 283 284 283 282 281 280 280 279 278 278 278 277 277 277 277 277 277 279 279 279 278 277 276 276 274 274 273 273 273 273 273 270 268 266 266 266 266 265
284 285 284 284 284 283 284 284 284 282 281 281 280 280 280 279 279 279 278 278 277 278 278 279 279 278 275 274 273 272 273 273 273 273 274 273 272 270 267 266 267 266 265
285 285 287 287 286 286 286 287 286 284 282 282 282 282 281 280 280 280 279 279 278 277 277 279 278 277 275 273 273 272 272 272 271 271 272 273 272 269 266 265 265 265 264
286 287 287 287 287 288 288 287 287 286 284 283 284 284 283 282 281 280 280 279 278 277 276 277 277 275 273 272 273 273 273 273 272 272 272 272 270 269 266 264 264 264 263
287 287 287 287 287 288 288 289 288 287 287 285 285 285 284 283 282 282 280 280 280 278 276 275 275 274 271 271 273 272 273 273 272 272 272 270 269 267 265 264 265 265 264
287 287 287 287 287 288 288 289 289 288 289 288 287 286 286 285 284 283 283 282 280 278 277 276 275 273 272 272 273 272 273 273 272 272 271 270 269 267 266 264 265 264 263
288 287 288 288 287 287 288 289 288 288 288 288 288 287 286 285 284 284 284 283 282 279 277 276 275 274 273 273 273 274 273 273 272 271 269 269 268 266 265 263 262 262 261
289 288 288 287 287 287 287 289 289 289 289 288 288 287 285 284 284 285 284 283 282 280 278 276 274 275 274 273 274 273 273 273 272 271 270 269 267 264 263 262 261 260 260
Height
5854 5854 5854 5854 5854 5854 5854 5854 5853 5853 5852 5852 5852 5851 5851 5850 5849 5849 5848 5848 5847 5847 5847 5846 5846 5845 5845 5844 5843 5843 5842 5841 5840 5840 5839 5838 5837 5836 5835 5834 5833 5832 5830
5851 5851 5851 5851 5851 5851 5851 5851 5850 5850 5850 5849 5849 5849 5849 5848 5847 5847 5846 5846 5845 5845 5844 5844 5843 5842 5842 5841 5841 5840 5839 5838 5837 5837 5836 5835 5835 5833 5832 5831 5830 5829 5827
5847 5847 5847 5847 5847 5848 5847 5847 5847 5847 5847 5846 5846 5846 5846 5845 5845 5844 5844 5843 5842 5842 5841 5841 5840 5840 5839 5838 5838 5837 5836 5835 5834 5833 5833 5832 5831 5830 5829 5828 5827 5825 5824
5843 5843 5843 5844 5844 5844 5844 5844 5844 5843 5843 5843 5843 5843 5843 5843 5842 5842 5841 5840 5840 5839 5838 5838 5837 5836 5836 5835 5834 5834 5833 5832 5831 5830 5829 5828 5827 5827 5826 5824 5823 5822 5821
5839 5839 5839 5840 5840 5840 5840 5840 5840 5840 5840 5840 5840 5840 5840 5839 5839 5838 5838 5837 5837 5836 5835 5834 5833 5833 5832 5831 5830 5830 5829 5828 5827 5826 5825 5824 5823 5822 5822 5821 5819 5818 5817
5835 5835 5835 5835 5835 5835 5835 5835 5836 5836 5836 5836 5836 5836 5836 5836 5835 5835 5834 5833 5833 5832 5831 5830 5830 5829 5828 5827 5826 5825 5825 5824 5823 5822 5821 5820 5819 5818 5818 5817 5816 5815 5813
5831 5830 5830 5831 5831 5831 5831 5831 5831 5831 5831 5831 5832 5832 5832 5831 5831 5831 5830 5829 5828 5828 5827 5826 5825 5824 5823 5822 5821 5821 5820 5819 5818 5817 5816 5815 5815 5814 5813 5812 5811 5810 5809
5827 5826 5826 5826 5826 5826 5826 5826 5826 5826 5826 5826 5827 5827 5827 5827 5826 5826 5825 5824 5824 5823 5822 5821 5820 5819 5818 5817 5816 5815 5815 5814 5813 5812 5811 5810 5809 5809 5808 5807 5807 5806 5805
5823 5822 5822 5822 5821 5821 5821 5821 5821 5821 5821 5821 5821 5821 5821 5821 5821 5820 5820 5819 5818 5818 5817 5816 5815 5814 5813 5812 5811 5809 5808 5807 5807 5806 5805 5804 5804 5803 5802 5802 5801 5801 5800
5819 5818 5818 5817 5816 5816 5816 5815 5815 5815 5815 5815 5815 5815 5815 5815 5815 5815 5814 5814 5813 5812 5811 5810 5809 5808 5807 5806 5804 5803 5802 5801 5800 5799 5798 5798 5797 5796 5796 5796 5795 5794 5794
5814 5813 5813 5812 5811 5810 5810 5810 5809 5809 5809 5809 5809 5809 5809 5809 5808 5808 5808 5807 5807 5806 5805 5804 5803 5802 5800 5799 5797 5795 5794 5793 5792 5791 5791 5790 5790 5789 5789 5789 5788 5788 5788
5808 5808 5807 5806 5805 5804 5804 5803 5803 5802 5802 5802 5802 5801 5801 5801 5801 5801 5801 5800 5800 5799 5798 5796 5795 5794 5792 5791 5790 5788 5787 5785 5784 5784 5783 5782 5781 5781 5781 5781 5781 5780 5780
5803 5802 5801 5800 5799 5798 5797 5796 5795 5795 5795 5794 5794 5794 5793 5793 5793 5793 5793 5792 5792 5790 5789 5788 5787 5786 5784 5783 5781 5780 5779 5777 5776 5775 5774 5774 5773 5773 5773 5772 5772 5772 5772
5796 5795 5794 5793 5792 5791 5790 5789 5788 5787 5786 5786 5786 5785 5785 5785 5784 5784 5784 5783 5783 5782 5780 5779 5778 5777 5775 5774 5773 5771 5770 5769 5767 5766 5765 5765 5764 5764 5764 5763 5763 5764 5764
5789 5788 5787 5786 5784 5783 5782 5781 5780 5779 5778 5777 5777 5776 5776 5775 5775 5774 5774 5774 5773 5772 5771 5770 5769 5767 5766 5765 5763 5762 5761 5759 5758 5757 5756 5755 5755 5754 5754 5754 5754 5754 5754
5782 5781 5779 5778 5777 5775 5774 5772 5771 5770 5769 5768 5768 5767 5766 5766 5765 5765 5764 5763 5762 5761 5760 5759 5758 5757 5756 5755 5753 5752 5750 5749 5748 5747 5746 5745 5745 5745 5745 5745 5745 5745 5745
5775 5773 5772 5770 5768 5767 5765 5764 5762 5761 5760 5759 5758 5757 5756 5756 5755 5754 5754 5753 5752 5751 5750 5748 5748 5747 5745 5744 5743 5741 5740 5739 5738 5737 5736 5736 5735 5735 5736 5736 5736 5736 5736
5767 5765 5763 5762 5760 5758 5756 5755 5753 5752 5751 5750 5748 5747 5746 5746 5745 5743 5743 5742 5741 5740 5739 5738 5737 5736 5734 5733 5731 5730 5729 5728 5728 5727 5726 5726 5725 5725 5726 5726 5726 5726 5727
5758 5756 5755 5753 5751 5749 5747 5746 5744 5743 5741 5740 5738 5737 5736 5735 5734 5732 5731 5731 5730 5729 5728 5726 5725 5724 5723 5721 5720 5719 5719 5718 5718 5717 5716 5715 5715 5715 5715 5716 5716 5717 5717
5750 5748 5746 5744 5742 5740 5738 5736 5735 5733 5731 5730 5728 5727 5725 5724 5723 5721 5720 5719 5718 5717 5716 5715 5713 5712 5711 5710 5709 5708 5708 5708 5707 5707 5706 5705 5705 5705 5705 5705 5706 5706 5707
5741 5739 5737 5735 5733 5731 5729 5727 5725 5723 5721 5720 5718 5716 5714 5713 5711 5710 5709 5707 5707 5706 5705 5703 5702 5700 5699 5699 5698 5697 5696 5696 5696 5695 5695 5694 5694 5694 5694 5694 5695 5696 5697
5732 5730 5728 5726 5724 5722 5720 5718 5715 5713 5711 5709 5707 5705 5704 5702 5700 5698 5697 5695 5694 5693 5692 5691 5690 5689 5688 5687 5686 5685 5685 5684 5684 5684 5683 5683 5682 5682 5682 5683 5684 5684 5686
5723 5721 5719 5717 5715 5712 5710 5708 5706 5703 5701 5699 5697 5695 5693 5691 5689 5687 5685 5683 5682 5680 5679 5679 5678 5677 5676 5676 5675 5674 5673 5672 5672 5672 5671 5671 5670 5670 5671 5672 5672 5673 5674
5712 5710 5708 5706 5705 5703 5700 5698 5696 5693 5691 5689 5686 5684 5682 5680 5678 5675 5673 5671 5670 5668 5667 5666 5665 5665 5664 5664 5663 5662 5661 5661 5660 5659 5659 5659 5658 5658 5659 5660 5661 5662 5663
5702 5700 5698 5696 5694 5692 5690 5688 5685 5683 5681 5678 5676 5673 5671 5669 5667 5665 5662 5660 5658 5656 5655 5654 5653 5653 5653 5652 5651 5650 5649 5648 5648 5647 5646 5646 5646 5647 5647 5648 5649 5651 5652
5691 5689 5687 5685 5683 5681 5679 5677 5674 5672 5670 5667 5665 5662 5660 5658 5655 5653 5651 5649 5648 5646 5644 5643 5642 5641 5641 5640 5639 5638 5638 5637 5636 5635 5634 5634 5635 5635 5636 5637 5638 5640 5641